CAPE
9 12 10 11 16 6 4 10 19 14 23 25 23 47 30 51 28 34 54 33 29 30 33 29 29 12 9 8 7 9 7 4 5 7 9 7 6 7 6 6 6 6 8
10 7 13 19 19 9 7 15 25 26 24 27 49 32 27 21 50 34 24 27 29 35 40 37 41 45 16 10 8 8 9 5 9 5 4 4 2 5 7 3 8 9 7
13 13 16 15 4 2 8 15 19 22 20 20 20 28 52 43 39 26 23 24 31 37 40 32 33 28 37 41 11 7 4 9 7 4 3 4 3 4 2 1 2 3 6
8 8 10 9 6 3 8 13 15 16 15 17 17 19 44 31 41 20 20 22 17 24 18 25 39 39 23 34 33 18 13 19 13 8 5 6 5 2 2 3 3 2 2
0 0 1 1 0 2 7 9 13 16 18 18 20 18 21 38 41 32 18 19 12 13 10 10 14 31 12 8 18 19 20 25 27 28 18 10 10 14 8 6 4 7 3
0 0 0 0 0 3 7 8 11 12 19 20 30 39 42 41 18 12 2 10 3 6 8 7 8 7 3 1 0 1 9 15 17 19 15 18 17 17 26 30 21 7 4
0 0 0 0 0 4 6 6 10 17 24 23 17 18 19 22 21 12 0 7 8 5 3 3 2 4 7 5 1 1 0 1 2 14 15 16 13 16 16 15 19 19 19
0 0 0 0 1 4 4 5 9 16 19 21 20 14 14 19 14 13 0 6 6 5 4 4 4 3 11 4 0 0 0 0 2 4 11 14 11 10 12 11 11 14 10
0 1 1 0 0 2 5 8 11 15 13 11 9 9 8 10 15 13 2 2 2 2 1 3 7 5 10 5 0 0 0 0 0 0 0 0 0 0 1 6 8 13 12
1 3 3 0 0 1 3 6 8 9 7 7 4 8 4 8 9 22 17 3 2 1 1 1 0 10 8 7 1 0 0 0 1 2 1 0 0 0 0 1 6 11 10
3 2 2 2 0 0 0 0 1 1 2 4 4 7 7 5 8 12 15 10 6 1 3 2 4 9 8 8 6 5 6 4 4 6 8 9 5 4 2 1 0 6 8
0 1 3 1 0 0 0 0 0 0 1 1 2 6 6 5 4 8 8 10 8 4 5 8 8 7 7 6 6 6 4 4 11 12 12 12 8 5 3 2 1 1 1
0 0 0 0 0 0 0 0 0 0 0 0 2 6 6 7 5 5 7 7 6 10 12 10 7 5 5 7 6 5 4 12 14 15 15 13 9 6 3 3 3 2 3
0 0 0 0 0 0 0 0 0 0 0 0 0 5 7 5 5 5 12 19 11 10 9 16 10 9 7 13 10 9 11 13 12 12 12 9 8 7 6 6 6 6 9
0 0 0 0 0 0 0 0 0 0 0 0 1 5 9 7 23 19 21 17 36 12 11 15 16 16 15 13 11 9 11 8 10 11 14 13 9 8 7 6 6 9 11
0 0 0 0 0 0 0 0 0 0 0 0 0 1 6 2 1 2 2 2 6 5 13 16 18 19 18 15 16 14 12 9 11 12 14 14 12 12 10 9 7 8 11
0 0 0 0 0 0 0 0 0 0 0 0 0 0 0 0 0 1 2 1 1 4 13 16 17 18 18 15 16 15 17 18 18 15 15 17 15 12 14 11 10 11 9
0 0 0 0 0 0 0 0 0 0 0 0 0 0 0 0 0 0 1 0 5 16 12 16 16 18 19 17 16 17 16 16 16 18 18 17 18 16 16 13 12 12 11
0 0 0 0 0 0 0 0 0 0 0 0 0 0 0 0 0 0 0 5 8 8 11 12 13 14 17 18 21 20 19 21 22 20 17 15 16 16 14 13 12 6 6
0 0 0 0 0 0 0 0 0 0 0 0 0 0 0 0 0 0 1 10 9 7 10 11 11 12 15 17 21 21 18 16 16 15 17 19 18 16 17 14 14 13 11
0 0 0 0 0 0 0 0 0 0 0 0 0 0 0 0 0 0 0 6 7 6 9 10 11 11 12 15 13 16 14 16 14 13 14 13 15 15 15 17 18 14 13
0 0 0 0 0 0 0 0 0 0 0 0 0 0 0 0 0 0 0 8 13 9 9 11 12 12 13 12 14 16 12 11 9 9 11 10 13 17 15 16 18 22 32
0 0 0 0 0 0 0 0 0 0 0 0 0 0 0 1 1 0 1 8 7 13 11 11 12 9 11 13 15 13 12 8 10 10 10 8 10 14 18 19 25 32 32
0 0 0 0 0 0 0 0 0 0 0 0 3 0 0 1 3 2 2 3 4 13 12 13 11 18 11 15 13 11 10 7 8 8 6 11 14 17 19 21 22 16 19
0 0 0 0 0 1 1 0 0 0 0 1 3 2 0 0 0 2 0 0 1 7 11 18 18 11 11 7 9 8 6 5 6 2 10 12 12 11 17 18 20 21 14
0 0 0 0 0 0 1 1 0 0 1 1 1 2 2 0 0 1 0 0 0 2 11 13 20 9 8 10 8 4 2 2 6 2 14 11 11 11 10 16 9 18 13
CIN
-0 -0 -0 -0 -0 -0 -0 -0 -0 -0 -0 -0 -0 -0 -0 -0 -0 -0 -0 -0 -0 -0 -0 -0 -0 -0 -0 -0 -0 -0 -0 -0 -0 -0 -0 -0 -0 -0 -0 -0 -0 -0 -0
-0 -0 -0 -0 -0 -0 -0 -0 -0 -0 -0 -0 -0 -0 -0 -0 -0 -0 -0 -0 -0 -0 -0 -0 -0 -0 -0 -0 -0 -0 -0 -0 -0 -0 -0 -0 -0 -0 -0 -0 -0 -0 -0
-0 -0 -0 -0 -0 -0 -0 -0 -0 -0 -0 -0 -0 -0 -0 -0 -0 -0 -0 -0 -0 -0 -0 -0 -0 -0 -0 -0 -0 -0 -0 -0 -0 -0 -0 -0 -0 -0 -0 -0 -0 -0 -0
-0 -0 -0 -0 -0 -0 -0 -0 -0 -0 -0 -0 -0 -0 -0 -0 -0 -0 -0 -0 -0 -0 -0 -0 -0 -0 -0 -0 -0 -0 -0 -0 -0 -0 -0 -0 -0 -0 -0 -0 -0 -0 -0
-0 -0 -0 -0 -0 -0 -0 -0 -0 -0 -0 -0 -0 -0 -0 -0 -0 -0 -0 -0 -0 -0 -0 -0 -0 -0 -0 -0 -0 -0 -0 -0 -0 -0 -0 -0 -0 -0 -0 -0 -0 -0 -0
-0 -0 -0 -0 -0 -0 -0 -0 -0 -0 -0 -0 -0 -0 -0 -0 -0 -0 -0 -0 -0 -0 -0 -0 -0 -0 -0 -0 -0 -0 -0 -0 -0 -0 -0 -0 -0 -0 -0 -0 -0 -0 -0
-0 -0 -0 -0 -0 -0 -0 -0 -0 -0 -0 -0 -0 -0 -0 -0 -0 -0 -0 -0 -0 -0 -0 -0 -0 -0 -0 -0 -1 -1 -0 -0 -1 -0 -0 -0 -0 -0 -0 -0 -0 -0 -0
-0 -0 -0 -0 -0 -0 -0 -0 -0 -0 -0 -0 -0 -0 -0 -0 -0 -0 -0 -0 -0 -0 -0 -0 -0 -0 -0 -0 -0 -0 -0 -0 -0 -0 -0 -0 -0 -0 -0 -0 -0 -0 -0
-0 -0 -0 -0 -0 -0 -0 -0 -0 -0 -0 -0 -0 -0 -0 -0 -0 -0 -0 -0 -0 -0 -0 -0 -0 -0 -0 -0 -0 -0 -0 -0 -0 -0 -0 -0 -0 -0 -0 -0 -0 -0 -0
-0 -0 -0 -0 -0 -0 -0 -0 -0 -0 -0 -0 -0 -0 -0 -0 -0 -0 -0 -0 -0 -0 -0 -0 -0 -0 -0 -0 -0 -0 -0 -0 -0 -0 -0 -0 -0 -0 -0 -0 -0 -0 -0
-0 -0 -0 -0 -0 -0 -0 -0 -0 -0 -0 -0 -0 -0 -0 -0 -0 -0 -0 -0 -0 -0 -0 -0 -0 -0 -0 -0 -0 -0 -0 -0 -0 -0 -0 -0 -0 -0 -0 -0 -0 -0 -0
-0 -0 -0 -0 -0 -0 -0 -0 -0 -0 -0 -0 -0 -0 -0 -0 -0 -0 -0 -0 -0 -0 -0 -0 -0 -0 -0 -0 -0 -0 -0 -0 -0 -0 -0 -0 -0 -0 -0 -0 -0 -0 -0
-0 -0 -0 -0 -0 -0 -0 -0 -0 -0 -0 -0 -0 -0 -0 -0 -0 -0 -0 -0 -0 -0 -0 -0 -0 -0 -0 -0 -0 -0 -0 -0 -0 -0 -0 -0 -0 -0 -0 -0 -0 -0 -0
-0 -0 -0 -0 -0 -0 -0 -0 -0 -0 -0 -0 -0 -0 -0 -0 -0 -0 -0 -0 -0 -0 -0 -0 -0 -0 -0 -0 -0 -0 -0 -0 -0 -0 -0 -0 -0 -0 -0 -0 -0 -0 -0
-0 -0 -0 -0 -0 -0 -0 -0 -0 -0 -0 -0 -0 -0 -0 -0 -0 -0 -0 -0 -0 -0 -0 -0 -0 -0 -0 -0 -0 -0 -0 -0 -0 -0 -0 -0 -0 -0 -0 -0 -0 -0 -0
-0 -0 -0 -0 -0 -0 -0 -0 -0 -0 -0 -0 -0 -0 -0 -0 -0 -0 -0 -0 -0 -0 -0 -0 -0 -0 -0 -0 -0 -0 -0 -0 -0 -0 -0 -0 -0 -0 -0 -0 -0 -0 -0
-0 -0 -0 -0 -0 -0 -0 -0 -0 -0 -0 -0 -0 -0 -0 -0 -0 -0 -0 -0 -0 -0 -0 -0 -0 -0 -0 -0 -0 -0 -0 -0 -0 -0 -0 -0 -0 -0 -0 -0 -0 -0 -0
-0 -0 -0 -0 -0 -0 -0 -0 -0 -0 -0 -0 -0 -0 -0 -0 -0 -0 -0 -0 -0 -0 -0 -0 -0 -0 -0 -0 -0 -0 -0 -0 -0 -0 -0 -0 -0 -0 -0 -0 -0 -0 -0
-0 -0 -0 -0 -0 -0 -0 -0 -0 -0 -0 -0 -0 -0 -0 -0 -0 -0 -0 -0 -0 -0 -0 -0 -0 -0 -0 -0 -0 -0 -0 -0 -0 -0 -0 -0 -0 -0 -0 -0 -0 -0 -0
-0 -0 -0 -0 -0 -0 -0 -0 -0 -0 -0 -0 -0 -0 -0 -0 -0 -0 -0 -0 -0 -0 -0 -0 -0 -0 -0 -0 -0 -0 -0 -0 -0 -0 -0 -0 -0 -0 -0 -0 -0 -0 -0
-0 -0 -0 -0 -0 -0 -0 -0 -0 -0 -0 -0 -0 -0 -0 -0 -0 -0 -0 -0 -0 -0 -0 -0 -0 -0 -0 -0 -0 -0 -0 -0 -0 -0 -0 -0 -0 -0 -0 -0 -0 -0 -0
-0 -0 -0 -0 -0 -0 -0 -0 -0 -0 -0 -0 -0 -0 -0 -0 -0 -0 -0 -0 -0 -0 -0 -0 -0 -0 -0 -0 -0 -0 -0 -0 -0 -0 -0 -0 -0 -0 -0 -0 -0 -0 -0
-0 -0 -0 -0 -0 -0 -0 -0 -0 -0 -0 -0 -0 -0 -0 -0 -0 -0 -0 -0 -0 -0 -0 -0 -0 -0 -0 -0 -0 -0 -0 -0 -0 -0 -0 -0 -0 -0 -0 -0 -0 -0 -0
-0 -0 -0 -0 -0 -0 -0 -0 -0 -0 -0 -0 -0 -0 -0 -0 -0 -0 -0 -0 -0 -0 -0 -0 -0 -0 -0 -0 -0 -0 -0 -0 -0 -0 -0 -0 -0 -0 -0 -0 -0 -0 -0
-0 -0 -0 -0 -0 -0 -0 -0 -0 -0 -0 -0 -0 -0 -0 -0 -0 -0 -0 -0 -0 -0 -0 -0 -0 -0 -0 -0 -0 -0 -0 -0 -0 -0 -0 -0 -0 -0 -0 -0 -0 -0 -0
-0 -0 -0 -0 -0 -0 -0 -0 -0 -0 -0 -0 -0 -0 -0 -0 -0 -0 -0 -0 -0 -0 -0 -0 -0 -0 -0 -0 -0 -0 -0 -0 -0 -0 -0 -0 -0 -0 -0 -0 -0 -0 -0
Wind_Speed
13 12 13 13 14 14 14 15 15 15 15 16 17 15 18 16 17 15 15 16 15 15 15 16 16 14 9 9 9 8 9 8 5 6 8 10 12 14 15 15 13 13 13
12 12 12 14 16 14 14 15 15 15 15 15 15 17 16 18 15 16 17 17 15 17 16 17 16 12 14 13 10 13 12 11 6 10 8 9 9 13 11 11 9 10 10
12 13 14 14 13 15 15 15 15 15 15 16 16 17 15 15 15 16 15 16 17 15 15 16 18 18 17 13 13 12 10 9 8 6 6 5 6 9 6 8 11 10 9
12 12 12 13 14 13 14 14 14 14 15 16 16 17 17 17 17 17 16 15 15 15 15 15 18 16 19 18 14 13 10 8 8 8 8 7 5 5 5 7 7 9 9
12 13 13 13 13 13 14 14 14 14 14 16 17 17 18 17 15 17 15 13 15 16 16 16 16 22 23 21 12 16 15 12 11 10 9 8 8 8 9 5 5 4 7
12 12 12 12 13 13 13 14 14 15 15 15 15 15 15 13 30 28 21 12 13 14 16 16 15 21 21 17 19 20 20 15 14 11 10 11 13 10 9 8 7 4 3
12 12 13 13 13 13 13 14 14 14 14 14 15 15 16 17 31 31 27 13 13 14 14 15 14 14 20 18 13 13 16 21 16 13 12 11 11 12 10 10 9 7 6
12 12 13 13 13 13 13 14 14 13 14 13 14 15 16 14 30 30 29 15 13 14 14 17 17 17 21 20 14 13 13 14 14 10 11 10 10 11 10 7 6 4 3
12 12 12 12 13 13 13 14 13 12 12 13 13 15 17 17 28 29 26 15 14 13 12 14 17 17 24 26 15 14 13 14 11 8 9 10 9 13 13 7 7 6 3
11 10 11 11 12 12 12 12 11 11 12 11 13 14 17 18 26 28 24 12 15 11 12 13 21 20 23 24 16 15 14 13 13 11 9 8 8 8 10 9 7 6 5
10 10 11 11 11 11 11 11 12 12 12 13 13 13 15 17 19 27 26 15 13 11 11 12 12 23 21 22 20 15 14 13 11 9 8 7 7 8 7 7 6 5 5
9 9 10 10 9 9 12 12 13 13 13 14 14 13 12 16 22 25 25 23 21 12 12 11 12 20 19 18 16 19 17 12 8 8 8 8 7 7 7 7 6 5 3
8 8 8 10 9 10 11 12 11 13 12 12 12 12 12 13 14 26 25 24 22 12 10 13 17 17 16 13 17 17 14 10 9 9 9 8 8 8 8 7 7 7 4
6 7 8 9 10 10 9 10 10 11 11 12 12 13 13 13 14 15 14 14 19 14 13 10 12 13 13 12 11 12 10 10 9 9 9 9 8 8 8 8 7 7 5
6 7 8 8 9 9 8 8 9 10 12 12 12 12 12 13 15 21 18 13 13 14 11 9 10 11 11 11 11 11 10 10 10 9 9 9 9 9 9 9 8 8 7
6 6 7 7 8 8 8 6 10 9 11 15 17 13 11 18 24 26 25 20 22 19 9 11 11 11 11 11 11 11 10 11 10 9 9 9 9 9 9 8 8 8 8
7 7 6 7 7 8 8 8 8 9 9 12 17 18 21 21 24 25 26 21 20 18 12 12 12 12 11 11 10 10 11 10 11 9 9 9 9 8 9 8 8 7 7
6 6 6 7 7 7 7 8 8 9 10 10 14 18 22 23 22 23 24 16 13 14 12 12 12 12 12 11 11 11 10 10 9 9 9 8 8 8 8 8 7 8 8
5 5 6 6 7 7 7 7 8 8 9 9 10 14 17 22 20 21 22 12 13 12 12 12 11 11 11 11 11 10 11 11 10 10 9 9 8 8 8 8 8 10 10
6 6 7 6 6 6 7 8 8 9 9 10 10 13 13 14 13 14 13 13 12 12 12 12 12 11 11 11 11 11 11 11 10 10 10 9 9 9 9 9 9 9 9
4 5 6 6 6 6 7 7 8 8 8 9 9 11 16 12 12 13 13 13 13 12 13 12 11 11 11 12 11 11 12 11 10 10 10 10 10 9 9 9 9 8 9
4 5 5 6 6 7 7 7 7 8 8 9 9 10 14 10 11 12 13 13 12 12 11 11 11 11 11 11 12 12 12 12 11 11 11 11 10 10 9 9 9 9 9
4 5 5 5 5 5 6 7 7 8 8 9 10 10 11 10 11 12 12 12 12 12 12 11 11 11 11 11 11 12 12 12 12 11 11 11 11 10 10 10 10 9 9
4 5 5 5 6 6 6 6 7 8 8 9 9 9 10 10 11 12 12 12 12 12 12 11 11 14 13 13 12 12 11 12 11 11 14 11 11 12 10 10 10 11 10
4 5 4 5 5 5 5 6 6 7 8 8 8 9 10 10 11 11 12 12 12 12 14 12 11 15 17 19 19 20 18 18 15 15 10 11 13 14 12 10 12 10 12
4 5 4 4 4 4 5 5 6 6 7 7 8 8 9 10 11 11 12 12 12 12 15 12 15 19 20 16 20 22 21 21 17 17 11 11 11 11 11 12 16 10 13
Wind_Direction
13 8 8 6 360 6 7 8 6 1 1 0 1 360 2 360 2 353 355 360 0 1 3 6 1 352 353 357 7 6 17 6 94 52 34 14 23 26 26 37 37 36 33
11 7 11 3 355 4 10 9 6 3 6 3 1 2 9 2 357 355 359 359 4 2 9 10 2 359 3 10 12 20 24 28 50 63 22 16 19 23 31 45 39 36 35
12 9 10 2 4 4 7 8 5 3 6 6 7 1 2 7 1 358 1 1 358 11 4 14 5 10 10 13 17 18 20 29 32 50 44 17 26 21 4 37 31 22 31
11 12 10 7 6 4 4 7 8 8 8 6 6 6 0 12 1 0 356 6 6 2 12 15 13 11 18 13 20 20 16 33 33 44 41 28 14 360 15 20 34 31 23
16 15 12 9 8 5 4 4 6 10 11 8 4 4 3 9 3 2 350 6 7 8 14 18 26 11 20 28 22 21 22 30 32 41 47 38 25 20 21 5 14 20 35
22 17 13 9 9 7 4 6 5 7 8 10 4 1 3 5 3 3 354 7 19 17 10 11 17 24 3 26 33 44 38 25 33 33 36 34 29 18 15 17 15 3 17
23 14 12 10 11 9 6 7 6 7 4 6 7 7 3 13 5 1 349 6 14 17 20 11 13 22 14 359 22 35 54 45 32 30 32 26 19 11 2 12 12 24 33
24 15 12 13 12 8 8 7 6 5 4 0 7 8 6 15 5 5 344 6 8 20 19 21 9 18 15 355 6 20 35 38 30 31 35 26 16 8 4 357 349 335 62
22 15 11 12 14 13 10 6 0 1 2 3 6 7 10 10 10 8 352 5 5 15 19 35 14 12 9 2 8 15 20 26 27 48 48 33 23 22 11 5 7 357 31
16 10 9 12 19 15 6 3 1 3 5 2 7 9 12 8 15 8 6 5 356 4 10 12 34 8 9 11 5 10 13 2 7 3 17 20 22 32 20 20 9 0 354
11 11 13 12 14 13 7 4 6 6 9 7 11 11 9 16 8 8 11 4 353 358 4 7 12 4 7 10 11 16 7 334 0 5 8 14 14 13 11 13 7 351 342
14 20 12 9 10 8 12 10 12 9 9 11 6 11 9 7 12 7 7 10 5 1 4 5 359 2 3 12 11 8 4 1 5 8 10 12 1 5 0 357 351 331 304
18 17 15 13 19 17 13 13 16 12 10 10 5 6 4 5 5 5 2 5 11 4 358 0 359 0 5 10 13 8 10 10 5 8 6 1 352 349 345 357 345 345 322
23 17 24 30 11 25 27 16 20 14 10 9 6 2 359 2 3 359 356 358 1 3 351 4 8 4 13 10 12 12 12 8 1 0 354 350 345 350 352 355 347 346 332
34 31 24 30 24 22 40 32 18 34 18 6 7 358 357 357 358 356 357 356 357 350 345 4 11 9 9 9 9 9 8 3 2 355 352 351 350 349 350 346 345 339 336
38 38 24 34 27 19 20 24 78 35 17 21 18 15 356 359 356 359 0 360 5 2 12 11 11 8 8 3 3 1 3 1 356 349 348 349 347 343 345 337 339 338 334
33 33 40 33 31 22 16 11 7 15 20 21 16 11 8 359 2 2 1 359 11 10 16 9 6 3 1 359 0 358 356 352 343 348 344 347 342 338 335 336 338 333 331
67 40 43 40 32 22 17 15 14 8 3 5 13 10 6 359 4 6 6 3 10 18 12 5 1 358 357 355 354 353 350 346 350 346 344 344 341 335 333 337 333 331 327
41 42 44 48 38 18 18 21 17 13 11 9 3 9 6 356 7 10 13 14 6 5 5 1 358 355 354 351 350 349 342 345 343 344 345 341 340 337 332 331 326 327 319
73 46 38 48 36 27 26 21 17 16 13 12 10 9 356 355 5 7 10 8 5 2 2 355 355 353 351 351 348 343 343 345 347 345 341 339 340 332 330 331 330 328 326
70 72 47 51 39 28 26 21 16 16 15 10 9 19 354 354 2 3 3 4 0 358 358 354 350 351 352 349 346 342 343 342 345 341 339 338 334 330 331 325 321 317 310
70 66 58 51 42 40 17 19 16 15 14 10 5 8 3 8 5 3 2 0 356 356 356 350 348 353 351 343 339 343 342 343 341 339 335 332 330 329 332 326 326 326 340
82 75 69 56 48 37 33 22 23 14 11 11 7 5 6 4 2 0 358 355 355 352 358 351 350 351 350 343 346 346 342 341 334 328 328 326 327 331 333 338 343 347 351
92 84 77 71 40 41 23 24 21 24 11 9 8 5 5 360 360 356 358 355 353 351 356 352 354 353 347 349 352 350 350 340 331 331 324 319 330 340 346 351 351 354 353
100 92 79 67 49 39 30 26 24 19 17 12 7 4 2 360 0 356 357 356 352 351 354 353 358 350 353 355 357 356 354 350 348 336 332 341 348 354 353 356 353 356 359
109 98 89 72 60 43 31 24 24 17 14 9 7 3 0 1 358 353 355 356 351 350 353 355 0 356 360 358 358 359 358 359 355 349 354 359 3 4 2 3 2 4 4